SCP
0 0 0 0 0 -0 -0 -0 -0 -0 -0 0 0 0 0 0 -0 -0 -0 -0 0 -0 -0 -0 0 0 0 0 0 0 0 0 0 -0 0 0 0 0 0 0 -0 0 -0
0 0 0 1 0 0 -0 -0 -0 0 0 0 0 0 0 0 0 0 0 0 0 0 0 0 0 0 0 0 0 0 0 0 0 0 0 -0 -0 0 0 0 0 0 0
1 1 0 0 0 0 0 0 0 0 0 0 0 0 0 0 0 0 0 0 0 0 0 0 0 0 0 0 0 0 0 0 0 0 0 -0 -0 0 0 0 0 0 -0
1 1 1 0 0 0 0 0 0 0 0 0 0 0 0 0 0 0 0 0 0 0 0 0 0 0 0 0 0 0 0 0 0 0 0 -0 -0 0 0 -0 -0 -0 -0
2 2 1 1 1 0 0 0 1 1 1 0 0 0 0 0 0 0 0 0 0 0 0 0 0 0 0 0 0 0 0 -0 0 0 0 0 0 0 -0 -0 -0 -0 -0
1 1 1 1 0 0 0 1 1 0 1 0 0 0 0 0 0 0 0 0 0 0 0 0 0 0 0 0 0 0 0 0 0 0 0 0 0 0 -0 0 0 -0 -0
1 1 1 1 1 1 1 1 1 0 0 0 0 0 0 0 0 0 0 0 0 0 0 0 0 0 0 0 0 0 0 0 0 0 0 0 0 0 0 0 0 0 -0
1 1 1 1 1 1 1 1 1 0 0 0 0 0 0 0 0 0 0 0 0 0 0 0 0 0 0 0 0 0 0 0 0 0 0 0 0 -0 0 0 0 0 0
1 1 1 1 1 1 1 1 1 1 0 0 0 0 0 0 0 0 0 0 0 0 0 0 0 0 0 0 0 0 0 0 0 0 0 0 0 -0 0 0 0 0 0
1 1 1 1 1 1 1 0 0 0 0 0 0 0 0 0 0 0 0 0 0 0 0 0 0 0 0 0 0 0 0 0 0 0 0 0 -0 -0 0 0 0 0 0
1 1 0 0 0 0 1 1 0 0 0 0 0 0 0 0 0 0 0 0 -0 -0 0 0 0 0 0 0 0 0 0 0 0 0 0 0 -0 0 0 0 0 0 0
1 1 0 0 0 0 0 0 0 0 0 0 0 0 0 0 0 0 0 0 0 0 0 0 0 0 0 0 0 0 0 0 0 0 0 0 0 0 0 0 0 0 0
1 1 1 0 0 0 0 0 0 0 0 0 0 0 0 0 0 0 0 0 0 0 0 0 0 0 0 0 0 0 0 0 0 0 0 0 0 0 0 0 0 0 0
0 0 0 0 0 0 0 0 0 0 0 0 0 0 0 0 0 0 0 0 0 0 0 0 0 0 0 0 0 0 0 0 0 0 0 0 0 0 0 0 0 0 0
0 0 0 0 0 0 0 0 0 0 0 0 0 0 0 0 0 0 0 0 0 0 0 0 0 0 0 0 0 0 0 0 0 0 0 0 0 0 0 0 0 0 0
0 0 0 0 0 0 0 0 0 0 0 0 0 0 0 0 0 0 0 0 0 0 0 0 0 0 0 0 0 0 0 0 0 0 0 0 0 0 0 0 0 0 0
0 0 0 0 0 0 0 0 0 0 0 0 0 0 0 0 0 0 0 0 0 0 0 0 0 0 0 0 0 0 0 0 0 0 0 0 0 0 0 0 0 0 0
1 0 0 1 0 0 0 0 0 0 0 0 0 0 0 0 0 0 0 0 0 0 0 0 0 0 0 0 0 0 0 0 0 0 0 0 0 0 0 0 0 0 0
0 1 1 1 0 0 0 0 0 0 0 0 0 0 0 0 0 0 0 0 0 0 0 0 0 0 0 0 0 0 0 0 0 0 0 0 0 0 0 0 0 0 0
1 1 1 1 0 0 0 0 0 0 0 0 0 0 0 0 0 0 0 0 0 0 0 0 0 0 0 0 0 0 0 0 0 0 0 0 0 0 0 0 0 0 0
2 1 1 0 0 0 0 0 0 0 0 0 0 0 0 0 0 0 0 0 0 0 0 0 0 0 0 0 0 0 0 0 0 0 0 0 0 0 0 0 0 0 0
1 1 1 1 0 0 0 0 0 0 0 0 0 0 0 0 0 0 0 0 0 0 0 0 0 0 0 0 0 0 0 0 0 0 0 0 0 0 0 0 0 0 0
0 1 1 1 0 0 0 0 0 0 0 0 0 0 0 0 0 0 0 0 0 0 0 0 0 0 0 0 0 0 0 0 0 0 0 0 0 0 0 0 0 0 0
0 0 2 3 0 0 0 0 0 0 0 0 0 0 0 0 0 0 0 0 0 0 0 0 0 0 0 0 0 0 0 0 0 0 0 0 0 0 0 0 0 0 0
0 0 3 2 0 0 0 0 0 0 0 0 0 0 0 0 0 0 0 0 0 0 0 0 0 0 0 0 0 0 0 0 0 0 0 0 0 0 0 0 0 0 0
0 0 0 0 0 0 0 0 0 0 0 0 0 0 0 0 0 0 0 0 0 0 0 0 0 0 0 0 0 0 0 0 0 0 0 0 0 0 0 0 0 0 0
Wind_Speed_500mb
61 64 61 56 51 48 45 43 40 37 35 33 32 30 28 26 24 21 20 20 20 18 17 16 14 13 11 9 8 9 9 7 8 10 15 17 14 14 12 14 16 16 17
58 68 62 57 52 47 43 41 38 35 32 30 29 28 25 24 22 21 21 19 19 17 16 15 14 12 11 9 9 11 11 9 11 13 12 11 14 16 14 14 16 16 18
51 69 62 56 53 47 42 40 36 34 31 29 27 26 25 22 21 19 18 17 16 16 14 13 12 11 10 10 11 13 14 11 13 11 10 10 14 15 16 14 15 16 17
48 61 61 57 51 46 42 40 37 34 32 29 27 25 23 21 19 18 16 14 13 13 12 12 12 7 7 10 11 14 16 12 11 5 7 10 12 13 17 15 12 13 16
60 60 60 58 53 46 42 40 37 35 33 31 27 25 24 22 19 17 15 13 12 11 10 10 7 5 4 5 9 13 15 15 10 7 8 6 10 9 13 15 12 11 14
53 54 59 59 54 49 44 41 38 36 33 31 28 26 25 21 20 17 14 12 11 10 9 8 8 6 5 5 6 11 15 18 10 11 8 7 4 7 12 15 11 7 9
50 53 59 57 54 50 46 42 40 37 34 31 29 27 25 23 20 18 16 15 15 14 13 12 10 9 8 6 5 9 18 21 13 6 5 7 5 5 9 13 8 6 5
33 52 60 57 53 50 47 45 42 39 36 32 30 29 26 25 22 20 19 19 18 17 16 15 14 12 10 7 6 10 19 21 18 11 9 5 10 11 11 13 7 3 2
30 48 59 57 55 52 49 46 44 38 36 34 30 25 25 25 24 23 22 22 21 21 19 17 15 13 10 8 11 17 18 19 23 22 15 12 12 12 14 13 7 3 1
38 42 55 57 56 54 51 49 43 39 35 33 31 29 28 28 27 25 24 23 22 21 20 18 16 15 14 15 18 22 18 19 21 19 14 13 13 20 17 13 8 7 4
46 46 46 54 53 53 51 47 43 39 35 34 34 33 31 30 28 24 23 23 21 18 16 16 17 17 17 21 26 26 20 20 21 20 15 16 19 21 16 16 15 5 6
51 52 52 51 55 56 52 50 47 43 42 40 38 36 34 33 28 26 25 22 23 20 19 19 18 19 23 21 26 31 26 23 20 19 17 18 20 22 20 18 13 4 6
52 54 57 57 57 60 56 54 53 49 46 44 42 40 38 36 34 31 29 26 25 23 21 20 20 21 23 22 21 25 25 24 22 21 18 19 23 21 16 6 8 7 6
52 56 57 58 60 64 60 60 57 55 54 52 48 46 45 40 38 35 32 28 28 26 24 23 23 21 22 25 21 22 21 20 19 17 15 15 12 6 8 16 12 15 15
48 53 61 63 65 69 68 66 64 63 61 55 53 53 50 46 45 39 31 32 31 30 27 26 22 18 20 24 22 23 22 19 16 13 10 4 4 10 28 28 14 17 13
49 51 60 69 72 69 69 71 71 69 65 61 60 59 56 52 50 43 39 38 37 34 31 27 22 23 24 27 26 24 23 18 14 10 5 5 18 20 34 33 19 18 10
54 50 52 57 69 71 66 64 69 72 69 67 64 62 62 56 51 46 46 43 39 34 32 31 31 31 27 28 26 21 18 16 11 7 3 6 13 22 28 32 26 15 6
63 62 59 66 68 72 71 66 66 69 71 71 68 66 66 60 56 53 53 46 42 38 37 36 34 34 30 27 26 22 15 11 9 7 2 3 7 10 18 21 17 12 8
75 71 71 73 75 75 74 70 66 71 71 71 69 66 67 68 65 61 57 53 51 46 45 46 44 36 37 33 28 23 13 10 9 5 2 2 1 4 9 16 15 12 5
62 74 80 79 82 81 77 76 67 67 70 68 67 66 68 70 69 65 63 62 61 57 55 54 48 45 39 35 31 24 15 11 8 7 6 4 5 5 4 3 1 2 4
71 74 85 93 92 90 91 87 81 81 80 75 72 67 67 69 72 67 67 67 65 61 62 58 55 51 52 44 44 34 27 16 12 12 12 10 6 8 9 5 5 7 8
82 88 88 97 103 98 97 93 89 85 85 80 76 67 63 65 68 68 67 67 64 63 64 65 65 66 63 59 53 50 34 31 25 22 18 15 13 10 7 6 7 10 11
63 90 95 98 109 105 102 103 99 92 86 82 77 72 69 66 63 66 62 59 62 62 64 65 70 69 74 72 65 41 29 21 47 31 26 20 16 16 15 14 12 13 13
44 59 88 101 114 111 111 111 110 105 100 96 84 78 73 70 65 67 68 61 63 64 62 66 65 72 71 77 75 61 32 35 36 31 37 28 22 20 18 18 16 15 16
44 40 64 97 111 115 117 117 111 99 87 86 83 77 71 66 62 64 72 65 64 66 65 66 67 69 71 74 78 77 54 37 46 46 58 49 33 20 16 15 12 8 8
42 31 42 74 88 97 103 109 107 93 87 83 82 79 75 73 67 67 71 66 66 69 69 67 68 68 67 67 75 70 70 55 54 51 43 61 46 30 18 14 10 6 7
Wind_Direction_500mb
178 179 171 167 166 162 156 151 146 145 145 146 142 141 142 145 147 149 150 152 152 154 150 145 142 139 135 128 112 98 94 99 98 98 88 77 65 58 46 23 18 26 32
174 182 174 171 171 167 159 153 150 147 149 148 146 143 142 143 145 151 153 154 153 151 148 147 146 142 137 129 115 105 107 114 110 89 72 74 45 50 44 30 21 28 33
175 178 175 176 175 170 163 157 155 154 154 153 154 151 148 150 151 153 156 157 156 153 152 154 149 143 137 131 123 116 117 132 125 92 75 114 45 53 36 22 23 33 38
182 183 178 180 179 174 167 163 162 161 160 160 163 162 158 158 158 159 160 163 163 161 155 155 153 147 146 138 132 125 128 149 138 146 113 111 60 39 26 16 19 37 43
183 186 183 183 182 178 173 170 168 168 168 167 171 174 172 171 173 174 177 177 177 178 183 186 190 174 169 155 139 131 141 171 156 130 90 61 65 31 10 2 359 19 40
183 188 189 186 185 181 178 176 175 175 177 174 180 185 182 183 185 186 190 196 200 200 198 198 195 204 210 194 154 138 158 184 174 140 127 133 28 16 355 354 352 3 36
185 191 189 188 187 185 182 181 182 182 183 183 187 195 189 185 187 188 196 206 212 218 221 228 227 233 229 216 176 150 181 192 160 141 156 146 118 307 339 331 327 322 3
202 191 190 189 190 189 188 187 189 189 190 194 195 201 186 184 190 196 201 210 218 223 227 231 236 238 233 221 182 181 198 198 179 182 160 216 270 303 324 325 291 278 306
193 193 190 192 193 193 193 194 194 197 198 196 196 198 188 193 197 200 205 212 218 224 229 230 231 228 216 186 167 186 198 195 180 184 196 215 252 278 297 315 292 259 272
186 189 196 198 199 198 196 200 202 197 196 197 198 199 198 202 201 202 204 208 213 217 222 224 223 217 204 186 168 190 182 182 181 191 199 229 244 256 279 290 263 214 213
193 197 200 205 204 205 204 201 200 199 198 202 203 204 205 208 204 201 201 203 204 206 210 214 211 207 189 191 188 195 187 183 190 194 209 229 247 265 282 286 289 231 228
202 204 206 210 210 208 203 205 205 203 205 205 207 208 206 211 205 201 201 200 193 193 196 201 201 196 185 185 192 195 194 193 204 217 227 244 262 273 275 268 258 200 205
213 212 211 215 218 213 211 211 210 209 210 208 208 209 211 211 207 204 200 197 193 193 193 191 187 183 179 188 191 191 204 211 223 238 252 266 273 266 264 179 119 178 178
212 213 214 218 217 216 214 215 214 212 211 210 209 209 212 211 203 192 194 199 198 194 193 186 184 188 192 184 199 203 210 213 218 234 254 271 274 237 145 117 124 130 165
217 218 216 219 221 220 213 214 214 214 215 212 211 212 211 210 203 199 198 199 197 196 196 190 186 190 192 197 215 213 209 208 220 233 237 224 115 158 122 117 132 135 151
220 224 223 221 221 224 219 217 215 215 216 213 213 214 214 212 209 205 205 202 200 201 195 189 178 177 177 182 194 195 205 212 213 221 196 111 106 130 126 122 137 123 142
230 228 226 229 224 227 228 224 220 218 217 216 214 215 218 214 213 214 212 207 202 200 199 193 181 176 172 172 182 189 193 197 203 209 172 91 92 126 143 146 152 160 147
232 228 231 226 225 226 227 226 223 219 219 220 216 215 217 216 216 213 213 211 208 202 202 196 189 176 171 176 180 184 200 203 214 207 252 19 90 112 148 163 176 193 189
236 233 229 227 228 227 226 226 221 220 222 222 219 218 217 215 214 213 215 217 218 211 206 199 189 188 176 171 171 173 187 212 232 255 252 257 103 153 153 147 165 193 210
246 244 238 232 229 226 226 221 225 223 224 222 223 224 222 219 216 213 214 216 215 210 201 194 192 185 187 181 173 172 172 187 216 264 249 190 192 212 209 196 175 79 60
241 243 239 229 228 226 221 218 220 220 219 220 224 227 225 224 220 219 219 214 211 211 203 199 193 189 180 185 175 160 156 176 210 218 244 267 249 206 205 222 288 325 352
247 242 237 235 228 226 227 223 221 221 219 221 220 222 226 230 228 227 223 219 216 213 207 203 201 188 189 189 185 166 152 162 186 194 214 243 251 257 275 265 286 297 309
253 248 240 238 234 229 226 221 217 219 217 216 219 221 222 226 229 230 227 224 224 221 218 209 205 206 193 191 198 181 160 182 173 177 197 221 227 236 246 262 274 284 296
252 240 243 237 230 226 220 220 220 219 211 213 215 219 221 224 224 223 225 224 228 227 221 221 212 210 210 201 194 202 197 194 175 170 188 198 214 235 238 240 250 265 297
311 292 242 227 224 221 219 219 218 214 216 215 214 216 220 222 223 221 224 223 225 225 225 224 221 213 213 212 206 207 210 198 193 181 178 183 189 201 232 249 244 260 281
354 312 240 226 219 214 212 216 216 212 214 213 209 211 219 222 220 218 222 225 224 225 227 228 225 222 220 217 219 219 218 206 198 198 185 188 186 178 193 213 237 247 277
Wind_Speed_850mb
61 64 61 56 51 48 45 43 40 37 35 33 32 30 28 26 24 21 20 20 20 18 17 16 14 13 11 9 8 9 9 7 8 10 15 17 14 14 12 14 16 16 17
58 68 62 57 52 47 43 41 38 35 32 30 29 28 25 24 22 21 21 19 19 17 16 15 14 12 11 9 9 11 11 9 11 13 12 11 14 16 14 14 16 16 18
51 69 62 56 53 47 42 40 36 34 31 29 27 26 25 22 21 19 18 17 16 16 14 13 12 11 10 10 11 13 14 11 13 11 10 10 14 15 16 14 15 16 17
48 61 61 57 51 46 42 40 37 34 32 29 27 25 23 21 19 18 16 14 13 13 12 12 12 7 7 10 11 14 16 12 11 5 7 10 12 13 17 15 12 13 16
60 60 60 58 53 46 42 40 37 35 33 31 27 25 24 22 19 17 15 13 12 11 10 10 7 5 4 5 9 13 15 15 10 7 8 6 10 9 13 15 12 11 14
53 54 59 59 54 49 44 41 38 36 33 31 28 26 25 21 20 17 14 12 11 10 9 8 8 6 5 5 6 11 15 18 10 11 8 7 4 7 12 15 11 7 9
50 53 59 57 54 50 46 42 40 37 34 31 29 27 25 23 20 18 16 15 15 14 13 12 10 9 8 6 5 9 18 21 13 6 5 7 5 5 9 13 8 6 5
33 52 60 57 53 50 47 45 42 39 36 32 30 29 26 25 22 20 19 19 18 17 16 15 14 12 10 7 6 10 19 21 18 11 9 5 10 11 11 13 7 3 2
30 48 59 57 55 52 49 46 44 38 36 34 30 25 25 25 24 23 22 22 21 21 19 17 15 13 10 8 11 17 18 19 23 22 15 12 12 12 14 13 7 3 1
38 42 55 57 56 54 51 49 43 39 35 33 31 29 28 28 27 25 24 23 22 21 20 18 16 15 14 15 18 22 18 19 21 19 14 13 13 20 17 13 8 7 4
46 46 46 54 53 53 51 47 43 39 35 34 34 33 31 30 28 24 23 23 21 18 16 16 17 17 17 21 26 26 20 20 21 20 15 16 19 21 16 16 15 5 6
51 52 52 51 55 56 52 50 47 43 42 40 38 36 34 33 28 26 25 22 23 20 19 19 18 19 23 21 26 31 26 23 20 19 17 18 20 22 20 18 13 4 6
52 54 57 57 57 60 56 54 53 49 46 44 42 40 38 36 34 31 29 26 25 23 21 20 20 21 23 22 21 25 25 24 22 21 18 19 23 21 16 6 8 7 6
52 56 57 58 60 64 60 60 57 55 54 52 48 46 45 40 38 35 32 28 28 26 24 23 23 21 22 25 21 22 21 20 19 17 15 15 12 6 8 16 12 15 15
48 53 61 63 65 69 68 66 64 63 61 55 53 53 50 46 45 39 31 32 31 30 27 26 22 18 20 24 22 23 22 19 16 13 10 4 4 10 28 28 14 17 13
49 51 60 69 72 69 69 71 71 69 65 61 60 59 56 52 50 43 39 38 37 34 31 27 22 23 24 27 26 24 23 18 14 10 5 5 18 20 34 33 19 18 10
54 50 52 57 69 71 66 64 69 72 69 67 64 62 62 56 51 46 46 43 39 34 32 31 31 31 27 28 26 21 18 16 11 7 3 6 13 22 28 32 26 15 6
63 62 59 66 68 72 71 66 66 69 71 71 68 66 66 60 56 53 53 46 42 38 37 36 34 34 30 27 26 22 15 11 9 7 2 3 7 10 18 21 17 12 8
75 71 71 73 75 75 74 70 66 71 71 71 69 66 67 68 65 61 57 53 51 46 45 46 44 36 37 33 28 23 13 10 9 5 2 2 1 4 9 16 15 12 5
62 74 80 79 82 81 77 76 67 67 70 68 67 66 68 70 69 65 63 62 61 57 55 54 48 45 39 35 31 24 15 11 8 7 6 4 5 5 4 3 1 2 4
71 74 85 93 92 90 91 87 81 81 80 75 72 67 67 69 72 67 67 67 65 61 62 58 55 51 52 44 44 34 27 16 12 12 12 10 6 8 9 5 5 7 8
82 88 88 97 103 98 97 93 89 85 85 80 76 67 63 65 68 68 67 67 64 63 64 65 65 66 63 59 53 50 34 31 25 22 18 15 13 10 7 6 7 10 11
63 90 95 98 109 105 102 103 99 92 86 82 77 72 69 66 63 66 62 59 62 62 64 65 70 69 74 72 65 41 29 21 47 31 26 20 16 16 15 14 12 13 13
44 59 88 101 114 111 111 111 110 105 100 96 84 78 73 70 65 67 68 61 63 64 62 66 65 72 71 77 75 61 32 35 36 31 37 28 22 20 18 18 16 15 16
44 40 64 97 111 115 117 117 111 99 87 86 83 77 71 66 62 64 72 65 64 66 65 66 67 69 71 74 78 77 54 37 46 46 58 49 33 20 16 15 12 8 8
42 31 42 74 88 97 103 109 107 93 87 83 82 79 75 73 67 67 71 66 66 69 69 67 68 68 67 67 75 70 70 55 54 51 43 61 46 30 18 14 10 6 7
Wind_Direction_850mb
178 179 171 167 166 162 156 151 146 145 145 146 142 141 142 145 147 149 150 152 152 154 150 145 142 139 135 128 112 98 94 99 98 98 88 77 65 58 46 23 18 26 32
174 182 174 171 171 167 159 153 150 147 149 148 146 143 142 143 145 151 153 154 153 151 148 147 146 142 137 129 115 105 107 114 110 89 72 74 45 50 44 30 21 28 33
175 178 175 176 175 170 163 157 155 154 154 153 154 151 148 150 151 153 156 157 156 153 152 154 149 143 137 131 123 116 117 132 125 92 75 114 45 53 36 22 23 33 38
182 183 178 180 179 174 167 163 162 161 160 160 163 162 158 158 158 159 160 163 163 161 155 155 153 147 146 138 132 125 128 149 138 146 113 111 60 39 26 16 19 37 43
183 186 183 183 182 178 173 170 168 168 168 167 171 174 172 171 173 174 177 177 177 178 183 186 190 174 169 155 139 131 141 171 156 130 90 61 65 31 10 2 359 19 40
183 188 189 186 185 181 178 176 175 175 177 174 180 185 182 183 185 186 190 196 200 200 198 198 195 204 210 194 154 138 158 184 174 140 127 133 28 16 355 354 352 3 36
185 191 189 188 187 185 182 181 182 182 183 183 187 195 189 185 187 188 196 206 212 218 221 228 227 233 229 216 176 150 181 192 160 141 156 146 118 307 339 331 327 322 3
202 191 190 189 190 189 188 187 189 189 190 194 195 201 186 184 190 196 201 210 218 223 227 231 236 238 233 221 182 181 198 198 179 182 160 216 270 303 324 325 291 278 306
193 193 190 192 193 193 193 194 194 197 198 196 196 198 188 193 197 200 205 212 218 224 229 230 231 228 216 186 167 186 198 195 180 184 196 215 252 278 297 315 292 259 272
186 189 196 198 199 198 196 200 202 197 196 197 198 199 198 202 201 202 204 208 213 217 222 224 223 217 204 186 168 190 182 182 181 191 199 229 244 256 279 290 263 214 213
193 197 200 205 204 205 204 201 200 199 198 202 203 204 205 208 204 201 201 203 204 206 210 214 211 207 189 191 188 195 187 183 190 194 209 229 247 265 282 286 289 231 228
202 204 206 210 210 208 203 205 205 203 205 205 207 208 206 211 205 201 201 200 193 193 196 201 201 196 185 185 192 195 194 193 204 217 227 244 262 273 275 268 258 200 205
213 212 211 215 218 213 211 211 210 209 210 208 208 209 211 211 207 204 200 197 193 193 193 191 187 183 179 188 191 191 204 211 223 238 252 266 273 266 264 179 119 178 178
212 213 214 218 217 216 214 215 214 212 211 210 209 209 212 211 203 192 194 199 198 194 193 186 184 188 192 184 199 203 210 213 218 234 254 271 274 237 145 117 124 130 165
217 218 216 219 221 220 213 214 214 214 215 212 211 212 211 210 203 199 198 199 197 196 196 190 186 190 192 197 215 213 209 208 220 233 237 224 115 158 122 117 132 135 151
220 224 223 221 221 224 219 217 215 215 216 213 213 214 214 212 209 205 205 202 200 201 195 189 178 177 177 182 194 195 205 212 213 221 196 111 106 130 126 122 137 123 142
230 228 226 229 224 227 228 224 220 218 217 216 214 215 218 214 213 214 212 207 202 200 199 193 181 176 172 172 182 189 193 197 203 209 172 91 92 126 143 146 152 160 147
232 228 231 226 225 226 227 226 223 219 219 220 216 215 217 216 216 213 213 211 208 202 202 196 189 176 171 176 180 184 200 203 214 207 252 19 90 112 148 163 176 193 189
236 233 229 227 228 227 226 226 221 220 222 222 219 218 217 215 214 213 215 217 218 211 206 199 189 188 176 171 171 173 187 212 232 255 252 257 103 153 153 147 165 193 210
246 244 238 232 229 226 226 221 225 223 224 222 223 224 222 219 216 213 214 216 215 210 201 194 192 185 187 181 173 172 172 187 216 264 249 190 192 212 209 196 175 79 60
241 243 239 229 228 226 221 218 220 220 219 220 224 227 225 224 220 219 219 214 211 211 203 199 193 189 180 185 175 160 156 176 210 218 244 267 249 206 205 222 288 325 352
247 242 237 235 228 226 227 223 221 221 219 221 220 222 226 230 228 227 223 219 216 213 207 203 201 188 189 189 185 166 152 162 186 194 214 243 251 257 275 265 286 297 309
253 248 240 238 234 229 226 221 217 219 217 216 219 221 222 226 229 230 227 224 224 221 218 209 205 206 193 191 198 181 160 182 173 177 197 221 227 236 246 262 274 284 296
252 240 243 237 230 226 220 220 220 219 211 213 215 219 221 224 224 223 225 224 228 227 221 221 212 210 210 201 194 202 197 194 175 170 188 198 214 235 238 240 250 265 297
311 292 242 227 224 221 219 219 218 214 216 215 214 216 220 222 223 221 224 223 225 225 225 224 221 213 213 212 206 207 210 198 193 181 178 183 189 201 232 249 244 260 281
354 312 240 226 219 214 212 216 216 212 214 213 209 211 219 222 220 218 222 225 224 225 227 228 225 222 220 217 219 219 218 206 198 198 185 188 186 178 193 213 237 247 277